Weather History for KGUC - April, 2013

Change the Weather History Date:

Thursday, April 18, 2013

  Actual Average Record
Temperature  
Mean Temperature 22 °F -  
Max Temperature 30 °F 51 °F 69 °F (2001)
Min Temperature 15 °F 23 °F 15 °F (2013)
Degree Days  
Heating Degree Days 42    
Moisture  
Dew Point 5 °F    
Average Humidity 50    
Maximum Humidity 73    
Minimum Humidity 29    
Precipitation  
Precipitation 0.00 in - - ()
Sea Level Pressure  
Sea Level Pressure 30.09 in    
Wind  
Wind Speed 13 mph (West)    
Max Wind Speed 18 mph    
Max Gust Speed 24 mph    
Visibility 10 miles    
Events      
Averages and records for this station are not official NWS values.
T = Trace of Precipitation, MM = Missing Value Source: NWS Daily Summary

Daily Weather History Graph

Daily Weather History Graph

Search for Another Location

Airport or City:

Trip Planner

Search our weather history database for the weather conditions in past years. The results will help you decide how hot, cold, wet, or windy it might be!

Date:

Astronomy

Apr. 18, 2013 Rise Set
Actual Time 6:27 AM MDT 7:47 PM MDT
Civil Twilight 5:59 AM MDT 8:15 PM MDT
Nautical Twilight 5:26 AM MDT 8:48 PM MDT
Astronomical Twilight 4:51 AM MDT 9:23 PM MDT
Moon 12:42 PM MDT (4/18) 2:02 AM MDT (4/18)
Length of Visible Light 14h 15m
Length of Day
13h 20m
First Quarter, 52% of the Moon is Illuminated
Apr 18
First Quarter
Apr 25
Full
May 2
Last Quarter
May 9
New
May 17
First Quarter

Hourly Weather History & Observations

Time (MDT) Temp. Windchill Dew Point Humidity Pressure Visibility Wind Dir Wind Speed Gust Speed Precip Events Conditions
12:15 AM 19.4 °F 5.5 °F 10.4 °F 68% 29.98 in 10.0 mi WSW 15.0 mph 19.6 mph N/A   Overcast
12:35 AM 19.4 °F 4.1 °F 10.4 °F 68% 29.98 in 10.0 mi WSW 18.4 mph - N/A   Overcast
12:55 AM 19.4 °F 5.5 °F 10.4 °F 68% 29.99 in 10.0 mi WSW 15.0 mph 19.6 mph N/A   Overcast
1:15 AM 19.4 °F 5.5 °F 10.4 °F 68% 29.99 in 10.0 mi WSW 15.0 mph 19.6 mph N/A   Overcast
1:35 AM 19.4 °F 5.0 °F 8.6 °F 63% 29.99 in 10.0 mi SW 16.1 mph 19.6 mph N/A   Overcast
1:55 AM 19.4 °F 6.6 °F 8.6 °F 63% 29.99 in 10.0 mi SW 12.7 mph - N/A   Overcast
2:15 AM 19.4 °F 6.0 °F 8.6 °F 63% 29.99 in 10.0 mi WSW 13.8 mph 21.9 mph N/A   Overcast
2:35 AM 19.4 °F 7.2 °F 10.4 °F 68% 30.00 in 10.0 mi West 11.5 mph 16.1 mph N/A   Overcast
2:55 AM 17.6 °F 4.3 °F 8.6 °F 68% 30.00 in 10.0 mi WSW 12.7 mph 19.6 mph N/A   Overcast
3:15 AM 17.6 °F 3.2 °F 10.4 °F 73% 29.99 in 10.0 mi SW 15.0 mph 23.0 mph N/A   Mostly Cloudy
3:35 AM 17.6 °F 5.0 °F 10.4 °F 73% 29.99 in 10.0 mi SW 11.5 mph 16.1 mph N/A   Partly Cloudy
3:55 AM 17.6 °F 5.7 °F 8.6 °F 68% 30.00 in 10.0 mi SW 10.4 mph 16.1 mph N/A   Clear
4:15 AM 17.6 °F 5.0 °F 8.6 °F 68% 30.00 in 10.0 mi WSW 11.5 mph 17.3 mph N/A   Clear
4:35 AM 17.6 °F 5.0 °F 8.6 °F 68% 30.00 in 10.0 mi WSW 11.5 mph 16.1 mph N/A   Clear
4:55 AM 17.6 °F 5.7 °F 8.6 °F 68% 30.00 in 10.0 mi WSW 10.4 mph - N/A   Partly Cloudy
5:15 AM 17.6 °F 7.3 °F 8.6 °F 68% 30.00 in 10.0 mi WSW 8.1 mph - N/A   Partly Cloudy
5:35 AM 15.8 °F 2.7 °F 8.6 °F 73% 30.00 in 10.0 mi WSW 11.5 mph - N/A   Clear
5:55 AM 15.8 °F 4.2 °F 6.8 °F 68% 30.01 in 10.0 mi WSW 9.2 mph - N/A   Clear
6:35 AM 15.8 °F 3.4 °F 6.8 °F 68% 30.01 in 10.0 mi West 10.4 mph - N/A   Clear
7:15 AM 17.6 °F 5.0 °F 6.8 °F 63% 30.02 in 10.0 mi WSW 11.5 mph - N/A   Clear
7:35 AM 17.6 °F 8.2 °F 8.6 °F 68% 30.03 in 10.0 mi WSW 6.9 mph - N/A   Clear
7:55 AM 17.6 °F 6.4 °F 8.6 °F 68% 30.04 in 10.0 mi WSW 9.2 mph - N/A   Clear
8:15 AM 19.4 °F 8.6 °F 8.6 °F 63% 30.05 in 10.0 mi WSW 9.2 mph - N/A   Scattered Clouds
8:35 AM 19.4 °F 8.6 °F 6.8 °F 58% 30.05 in 10.0 mi SSW 9.2 mph - N/A   Mostly Cloudy
8:55 AM 19.4 °F 7.2 °F 6.8 °F 58% 30.05 in 10.0 mi SW 11.5 mph - N/A   Overcast
9:15 AM 19.4 °F 7.9 °F 6.8 °F 58% 30.05 in 10.0 mi SW 10.4 mph 19.6 mph N/A   Scattered Clouds
9:35 AM 21.2 °F 10.1 °F 6.8 °F 54% 30.05 in 10.0 mi WSW 10.4 mph 18.4 mph N/A   Mostly Cloudy
9:55 AM 23.0 °F 13.9 °F 6.8 °F 50% 30.06 in 10.0 mi West 8.1 mph - N/A   Mostly Cloudy
10:15 AM 24.8 °F 12.4 °F 3.2 °F 40% 30.06 in 10.0 mi NNW 15.0 mph - N/A   Scattered Clouds
10:35 AM 24.8 °F 12.4 °F -2.2 °F 31% 30.07 in 10.0 mi NW 15.0 mph - N/A   Clear
10:55 AM 26.6 °F 15.7 °F 1.4 °F 34% 30.07 in 10.0 mi NW 12.7 mph 20.7 mph N/A   Clear
11:15 AM 26.6 °F 16.8 °F -2.2 °F 29% 30.07 in 10.0 mi NW 10.4 mph 20.7 mph N/A   Partly Cloudy
11:35 AM 26.6 °F 14.3 °F -0.4 °F 31% 30.07 in 10.0 mi NNW 16.1 mph 23.0 mph N/A   Clear
11:55 AM 26.6 °F 15.7 °F -0.4 °F 31% 30.08 in 10.0 mi NNW 12.7 mph 23.0 mph N/A   Partly Cloudy
12:35 PM 26.6 °F 15.2 °F -2.2 °F 29% 30.08 in 10.0 mi NNW 13.8 mph 23.0 mph N/A   Overcast
12:55 PM 26.6 °F 14.7 °F -0.4 °F 31% 30.08 in 10.0 mi NW 15.0 mph 20.7 mph N/A   Overcast
1:15 PM 26.6 °F 20.0 °F 1.4 °F 34% 30.09 in 10.0 mi WNW 5.8 mph - N/A   Overcast
1:35 PM 26.6 °F 16.2 °F 1.4 °F 34% 30.09 in 10.0 mi West 11.5 mph 18.4 mph N/A   Overcast
1:55 PM 26.6 °F 16.8 °F 1.4 °F 34% 30.09 in 10.0 mi NW 10.4 mph 16.1 mph N/A   Overcast
2:35 PM 28.4 °F 17.5 °F 1.4 °F 31% 30.10 in 10.0 mi NW 13.8 mph 21.9 mph N/A   Mostly Cloudy
2:55 PM 28.4 °F 18.0 °F 1.4 °F 31% 30.11 in 10.0 mi NW 12.7 mph 16.1 mph N/A   Mostly Cloudy
3:15 PM 26.6 °F 17.5 °F -0.4 °F 31% 30.11 in 10.0 mi NNW 9.2 mph - N/A   Mostly Cloudy
3:55 PM 28.4 °F 18.5 °F 1.4 °F 31% 30.12 in 10.0 mi NW 11.5 mph 20.7 mph N/A   Mostly Cloudy
4:15 PM 28.4 °F 19.1 °F -0.4 °F 29% 30.13 in 10.0 mi NW 10.4 mph - N/A   Mostly Cloudy
4:35 PM 28.4 °F 18.0 °F 8.6 °F 43% 30.14 in 10.0 mi West 12.7 mph 21.9 mph N/A   Mostly Cloudy
5:35 PM 28.4 °F 18.0 °F 1.4 °F 31% 30.15 in 10.0 mi NW 12.7 mph 19.6 mph N/A   Mostly Cloudy
5:55 PM 30.2 °F 20.2 °F 1.4 °F 29% 30.16 in 10.0 mi WNW 12.7 mph - N/A   Overcast
6:15 PM 30.2 °F 18.1 °F 1.4 °F 29% 30.17 in 10.0 mi WNW 18.4 mph 24.2 mph N/A   Overcast
6:35 PM 28.4 °F 17.0 °F 1.4 °F 31% 30.18 in 10.0 mi West 15.0 mph 23.0 mph N/A   Mostly Cloudy
6:55 PM 28.4 °F 17.5 °F 6.8 °F 40% 30.19 in 10.0 mi West 13.8 mph 19.6 mph N/A   Scattered Clouds
7:15 PM 26.6 °F 16.2 °F 6.8 °F 43% 30.20 in 10.0 mi West 11.5 mph - N/A   Partly Cloudy
7:35 PM 26.6 °F 16.2 °F 5.0 °F 40% 30.21 in 10.0 mi West 11.5 mph - N/A   Clear
7:55 PM 24.8 °F 14.6 °F 10.4 °F 54% 30.22 in 10.0 mi WSW 10.4 mph 17.3 mph N/A   Clear
8:15 PM 24.8 °F 14.0 °F 8.6 °F 50% 30.23 in 10.0 mi WSW 11.5 mph - N/A   Clear
8:35 PM 24.8 °F 16.1 °F 6.8 °F 46% 30.24 in 10.0 mi West 8.1 mph - N/A   Clear
9:35 PM 24.8 °F 12.9 °F 3.2 °F 40% 30.26 in 10.0 mi WNW 13.8 mph - N/A   Clear
9:55 PM 23.0 °F 10.6 °F 1.4 °F 39% 30.27 in 10.0 mi WNW 13.8 mph - N/A   Clear
10:15 PM 23.0 °F 11.7 °F 1.4 °F 39% 30.27 in 10.0 mi West 11.5 mph - N/A   Clear
10:35 PM 23.0 °F 13.9 °F 1.4 °F 39% 30.28 in 10.0 mi West 8.1 mph - N/A   Clear
10:55 PM 21.2 °F 16.4 °F 1.4 °F 42% 30.28 in 10.0 mi WSW 3.5 mph - N/A   Clear
11:15 PM 21.2 °F - 3.2 °F 46% 30.28 in 10.0 mi Calm Calm - N/A   Clear
11:55 PM 19.4 °F - 3.2 °F 49% 30.29 in 10.0 mi Calm Calm - N/A   Clear